Oldest pages

Jump to navigation Jump to search

Showing below up to 250 results in range #1 to #250.

View (previous 250 | next 250) (20 | 50 | 100 | 250 | 500)

  1. Brunswick‏‎ (21:07, 15 July 2007)
  2. Columbia 300‏‎ (18:34, 16 July 2007)
  3. Storm‏‎ (18:52, 16 July 2007)
  4. Insite Bowling Products‏‎ (19:07, 16 July 2007)
  5. RotoGrip‏‎ (19:12, 16 July 2007)
  6. Ebonite‏‎ (09:57, 18 July 2007)
  7. Ebonite Tommy Jones Trick Layout‏‎ (19:52, 13 June 2009)
  8. Ebonite Jason Couch Trick Layout‏‎ (19:52, 13 June 2009)
  9. Columbia Big Hook‏‎ (19:53, 13 June 2009)
  10. Columbia Controlled Arc‏‎ (19:53, 13 June 2009)
  11. Columbia Full Roller‏‎ (19:53, 13 June 2009)
  12. Columbia Length Arc‏‎ (19:54, 13 June 2009)
  13. Columbia Length Sharp‏‎ (19:54, 13 June 2009)
  14. Ebonite Stack Leverage‏‎ (19:56, 13 June 2009)
  15. Ebonite Axis Leverage‏‎ (19:56, 13 June 2009)
  16. Ebonite Full Roller‏‎ (19:56, 13 June 2009)
  17. Ebonite High RG Arc‏‎ (19:57, 13 June 2009)
  18. Ebonite High RG Strong‏‎ (19:57, 13 June 2009)
  19. Ebonite Label Leverage‏‎ (19:58, 13 June 2009)
  20. Ebonite Low RG Arc‏‎ (19:58, 13 June 2009)
  21. Ebonite Low RG Strong‏‎ (19:58, 13 June 2009)
  22. Ebonite Medium RG Arc‏‎ (19:59, 13 June 2009)
  23. Ebonite Medium RG Strong‏‎ (19:59, 13 June 2009)
  24. Ebonite Rev Leverage‏‎ (19:59, 13 June 2009)
  25. Motiv Length‏‎ (20:00, 13 June 2009)
  26. Motiv Leverage‏‎ (20:01, 13 June 2009)
  27. Motiv Length and Leverage‏‎ (20:01, 13 June 2009)
  28. Motiv Early‏‎ (21:35, 10 August 2010)
  29. Legal‏‎ (20:17, 9 January 2011)
  30. Templates‏‎ (17:46, 19 January 2011)
  31. Angular velocity‏‎ (20:28, 19 April 2011)
  32. Arc‏‎ (20:28, 19 April 2011)
  33. Asymmetrical Core‏‎ (20:32, 19 April 2011)
  34. Axis leverage‏‎ (20:32, 19 April 2011)
  35. Axis point‏‎ (20:32, 19 April 2011)
  36. Axis rotation‏‎ (20:40, 19 April 2011)
  37. Axis weight‏‎ (20:40, 19 April 2011)
  38. Back of hole‏‎ (20:40, 19 April 2011)
  39. Back swing‏‎ (20:42, 19 April 2011)
  40. Backend‏‎ (20:42, 19 April 2011)
  41. Backup ball‏‎ (20:42, 19 April 2011)
  42. Balance hole‏‎ (20:42, 19 April 2011)
  43. Ball reaction‏‎ (20:43, 19 April 2011)
  44. Bevel‏‎ (20:43, 19 April 2011)
  45. Blister‏‎ (20:43, 19 April 2011)
  46. Boards‏‎ (20:43, 19 April 2011)
  47. Bottom weight‏‎ (20:44, 19 April 2011)
  48. Bowtie‏‎ (20:44, 19 April 2011)
  49. Bridge‏‎ (20:44, 19 April 2011)
  50. Callus‏‎ (20:46, 19 April 2011)
  51. Calipers‏‎ (20:47, 19 April 2011)
  52. Carry down‏‎ (20:47, 19 April 2011)
  53. Center line‏‎ (20:48, 19 April 2011)
  54. Center line transposition‏‎ (20:48, 19 April 2011)
  55. Cosmetic bevel‏‎ (20:50, 19 April 2011)
  56. Cranker‏‎ (20:51, 19 April 2011)
  57. Deflection‏‎ (07:39, 20 April 2011)
  58. Degree of oval‏‎ (07:39, 20 April 2011)
  59. Differential of radius of gyration‏‎ (07:39, 20 April 2011)
  60. Differential Ratio‏‎ (07:40, 20 April 2011)
  61. Durometer‏‎ (07:41, 20 April 2011)
  62. Dynamic imbalance‏‎ (07:41, 20 April 2011)
  63. Dynamics‏‎ (07:41, 20 April 2011)
  64. Equator‏‎ (07:42, 20 April 2011)
  65. Finger tip‏‎ (07:47, 20 April 2011)
  66. Flare‏‎ (07:50, 20 April 2011)
  67. Flat spot‏‎ (07:50, 20 April 2011)
  68. Follow through‏‎ (07:50, 20 April 2011)
  69. Forward pitch‏‎ (07:51, 20 April 2011)
  70. Front of hole‏‎ (07:51, 20 April 2011)
  71. Functional bevel‏‎ (07:55, 20 April 2011)
  72. Gripper/Squeezer‏‎ (07:55, 20 April 2011)
  73. Heads‏‎ (07:56, 20 April 2011)
  74. Heavy hit‏‎ (07:56, 20 April 2011)
  75. High performance balls‏‎ (07:56, 20 April 2011)
  76. Hinge angle‏‎ (07:57, 20 April 2011)
  77. Hit the ball‏‎ (07:57, 20 April 2011)
  78. Hook‏‎ (07:57, 20 April 2011)
  79. Hook angle‏‎ (07:57, 20 April 2011)
  80. Hook potential‏‎ (07:58, 20 April 2011)
  81. Horizontal axis measurement‏‎ (07:58, 20 April 2011)
  82. Inside line‏‎ (07:58, 20 April 2011)
  83. Intermediate Differential‏‎ (07:59, 20 April 2011)
  84. Label shift‏‎ (07:59, 20 April 2011)
  85. Leverage position‏‎ (08:00, 20 April 2011)
  86. Lift‏‎ (08:00, 20 April 2011)
  87. Line‏‎ (08:00, 20 April 2011)
  88. Linear velocity‏‎ (08:00, 20 April 2011)
  89. Loft‏‎ (08:01, 20 April 2011)
  90. Low track‏‎ (08:01, 20 April 2011)
  91. Mark‏‎ (08:01, 20 April 2011)
  92. Mass Bias‏‎ (08:02, 20 April 2011)
  93. Midline‏‎ (08:02, 20 April 2011)
  94. Midplane/Vertical Axis Line‏‎ (08:03, 20 April 2011)
  95. Mid or half weights‏‎ (08:03, 20 April 2011)
  96. Moment of inertia‏‎ (08:03, 20 April 2011)
  97. Negative weight‏‎ (08:04, 20 April 2011)
  98. Negative side weight‏‎ (08:04, 20 April 2011)
  99. Normal callus‏‎ (08:04, 20 April 2011)
  100. Offset‏‎ (08:04, 20 April 2011)
  101. Open‏‎ (08:05, 20 April 2011)
  102. Ovaled‏‎ (08:05, 20 April 2011)
  103. Pie Chart Formula‏‎ (08:05, 20 April 2011)
  104. Pin‏‎ (08:06, 20 April 2011)
  105. Pin action‏‎ (08:06, 20 April 2011)
  106. Pin shift‏‎ (08:06, 20 April 2011)
  107. Pitch‏‎ (08:06, 20 April 2011)
  108. Pivot point‏‎ (08:06, 20 April 2011)
  109. Positive weight‏‎ (08:09, 20 April 2011)
  110. Positive side weight‏‎ (08:09, 20 April 2011)
  111. Pull the ball‏‎ (08:10, 20 April 2011)
  112. Push Away‏‎ (08:11, 20 April 2011)
  113. Radius of gyration (Rg)‏‎ (08:11, 20 April 2011)
  114. Release point‏‎ (08:11, 20 April 2011)
  115. Reverse pitch‏‎ (08:11, 20 April 2011)
  116. Reverse block‏‎ (08:12, 20 April 2011)
  117. Revolutions‏‎ (08:12, 20 April 2011)
  118. Rotational Energy‏‎ (08:13, 20 April 2011)
  119. Safe zone‏‎ (08:13, 20 April 2011)
  120. Semi tip‏‎ (08:13, 20 April 2011)
  121. Shell‏‎ (08:14, 20 April 2011)
  122. Shiny‏‎ (08:14, 20 April 2011)
  123. Skid‏‎ (08:14, 20 April 2011)
  124. Snap‏‎ (08:15, 20 April 2011)
  125. Span‏‎ (08:16, 20 April 2011)
  126. Squirt‏‎ (08:16, 20 April 2011)
  127. Stacked leverage‏‎ (08:17, 20 April 2011)
  128. Static weights‏‎ (08:18, 20 April 2011)
  129. Surface‏‎ (08:18, 20 April 2011)
  130. Symmetrical Core‏‎ (08:18, 20 April 2011)
  131. System of Bowling (SOB)‏‎ (08:19, 20 April 2011)
  132. Tapered‏‎ (08:19, 20 April 2011)
  133. Track‏‎ (08:19, 20 April 2011)
  134. Track flare management‏‎ (08:20, 20 April 2011)
  135. Translational energy‏‎ (08:20, 20 April 2011)
  136. Trick Layouts‏‎ (08:22, 20 April 2011)
  137. True positive axis point (True PAP)‏‎ (08:22, 20 April 2011)
  138. Vent hole‏‎ (08:22, 20 April 2011)
  139. Vertical Axis Line‏‎ (08:23, 20 April 2011)
  140. Weight block‏‎ (08:23, 20 April 2011)
  141. Weight hole‏‎ (08:24, 20 April 2011)
  142. Ridenour 3 pin 10 pin‏‎ (08:41, 20 April 2011)
  143. Ball Speed Comparison Video‏‎ (08:42, 20 April 2011)
  144. Ridenour Center Of Gravity‏‎ (08:42, 20 April 2011)
  145. RPM Comparison Videos‏‎ (08:43, 20 April 2011)
  146. Surface Adjustment Comparison Video‏‎ (08:43, 20 April 2011)
  147. Article History Of Oil‏‎ (08:45, 20 April 2011)
  148. Ra Grit Comparison‏‎ (08:45, 20 April 2011)
  149. Ra to Unit Depth Comparison‏‎ (08:45, 20 April 2011)
  150. Article Bowling Science‏‎ (08:46, 20 April 2011)
  151. Peak Performance Under Stress‏‎ (08:48, 20 April 2011)
  152. Ridenour Biomechanics‏‎ (08:48, 20 April 2011)
  153. Ridenour Motion Capture‏‎ (08:49, 20 April 2011)
  154. Shift Bowl Technique‏‎ (08:49, 20 April 2011)
  155. Knowledge‏‎ (08:59, 20 April 2011)
  156. Kegel Navigation Patterns‏‎ (09:03, 20 April 2011)
  157. PBA Patterns‏‎ (09:06, 20 April 2011)
  158. USBC Patterns‏‎ (09:06, 20 April 2011)
  159. World Tenpin Bowling Association Patterns‏‎ (09:06, 20 April 2011)
  160. Miscellaneous Patterns‏‎ (09:06, 20 April 2011)
  161. Collegiate Oil Pattern Breakdown‏‎ (09:09, 20 April 2011)
  162. How to read an oil pattern graph‏‎ (09:10, 20 April 2011)
  163. Oil Pattern Breakdown‏‎ (09:10, 20 April 2011)
  164. Brunswick Authority 22‏‎ (09:15, 20 April 2011)
  165. Finger weight‏‎ (09:20, 20 April 2011)
  166. Simplified Fan Chart Instructions‏‎ (09:21, 20 April 2011)
  167. Two Stage Bevel‏‎ (09:23, 20 April 2011)
  168. Measure Bowlers Positive Axis Point‏‎ (16:54, 20 April 2011)
  169. Measure Axis Rotation & Tilt & Revs‏‎ (16:55, 20 April 2011)
  170. Video Capture Revs Tilt‏‎ (16:57, 20 April 2011)
  171. Ridenour Mysteries Of Particle‏‎ (10:42, 22 April 2011)
  172. Effects of Drilling Finger Holes Deeper‏‎ (10:42, 22 April 2011)
  173. Full roller‏‎ (22:14, 22 April 2011)
  174. Motiv drill sheets‏‎ (22:19, 22 April 2011)
  175. MoRich extra sheets‏‎ (22:19, 22 April 2011)
  176. Lane 1 drill sheets‏‎ (22:20, 22 April 2011)
  177. Columbia drill sheets‏‎ (22:20, 22 April 2011)
  178. Brunswick drill sheets‏‎ (22:21, 22 April 2011)
  179. MoRich Double Thumb Layout‏‎ (22:26, 22 April 2011)
  180. Positive axis point(PAP)‏‎ (22:32, 22 April 2011)
  181. Full Roller Layouts Symmetrical‏‎ (18:34, 23 April 2011)
  182. Full Roller Layouts Asymmetrical‏‎ (18:34, 23 April 2011)
  183. PBA Plastic Ball Layout‏‎ (18:34, 23 April 2011)
  184. The Winning Ingredients‏‎ (14:37, 24 April 2011)
  185. Mental Game Toolbox‏‎ (09:01, 29 April 2011)
  186. RG Contour Explanation‏‎ (10:56, 4 May 2011)
  187. Static Weights‏‎ (08:13, 12 May 2011)
  188. Mastering The Competition Cycle‏‎ (12:37, 20 May 2011)
  189. Thumb Angle Pitch Chart‏‎ (17:10, 29 May 2011)
  190. Role of the Trailing Leg and Knee Continuation‏‎ (05:14, 5 June 2011)
  191. Cybervision Tapes‏‎ (12:38, 2 August 2011)
  192. Axis Rotation Comparison Video‏‎ (09:09, 9 September 2011)
  193. Wrist cock‏‎ (03:56, 14 September 2011)
  194. Biomechanical terms‏‎ (14:19, 22 December 2011)
  195. Grip Test as illustrated by Don Johnson‏‎ (14:20, 22 December 2011)
  196. Dick Ritger Bowling Camps‏‎ (18:42, 23 December 2011)
  197. Above 180 Joey Cerar and Tim Burg‏‎ (18:43, 23 December 2011)
  198. Bill Spigner‏‎ (18:44, 23 December 2011)
  199. BallReviews.com‏‎ (18:47, 23 December 2011)
  200. Bowl.com‏‎ (18:48, 23 December 2011)
  201. Bowlers Journal International‏‎ (18:49, 23 December 2011)
  202. BowlingChat.net‏‎ (18:54, 23 December 2011)
  203. BowlingKnowledge.info‏‎ (18:54, 23 December 2011)
  204. Bowling This Month‏‎ (18:55, 23 December 2011)
  205. Bowling Trainer / German‏‎ (18:55, 23 December 2011)
  206. Bowlingstuff.com‏‎ (18:56, 23 December 2011)
  207. ‏‎ (18:57, 23 December 2011)
  208. Jayhawk Fitting Tips‏‎ (18:58, 23 December 2011)
  209. MOs Recommended Layouts‏‎ (18:59, 23 December 2011)
  210. Next Level Bowling‏‎ (19:00, 23 December 2011)
  211. The Foundation‏‎ (19:00, 23 December 2011)
  212. The International Art of Bowling‏‎ (19:01, 23 December 2011)
  213. Tom Blasco's Expert Bowling Tips‏‎ (19:01, 23 December 2011)
  214. Autobahn‏‎ (19:02, 23 December 2011)
  215. Bourbon Street‏‎ (19:02, 23 December 2011)
  216. PBA Chameleon‏‎ (19:03, 23 December 2011)
  217. PBA Cheetah‏‎ (19:03, 23 December 2011)
  218. PBA Scorpion‏‎ (19:03, 23 December 2011)
  219. PBA Shark‏‎ (19:03, 23 December 2011)
  220. PBA Viper‏‎ (19:04, 23 December 2011)
  221. Pba.com‏‎ (19:04, 23 December 2011)
  222. Richard Shockley's Virtual Bowling Channel‏‎ (19:04, 23 December 2011)
  223. Phantom Radio Show‏‎ (19:05, 23 December 2011)
  224. Ron Clifton's Bowl4fun‏‎ (19:05, 23 December 2011)
  225. Stone Street‏‎ (19:06, 23 December 2011)
  226. Sunset Strip‏‎ (19:06, 23 December 2011)
  227. Tournament of Champions Pattern‏‎ (19:06, 23 December 2011)
  228. Turnpike‏‎ (19:07, 23 December 2011)
  229. World Championship Pattern‏‎ (19:07, 23 December 2011)
  230. USBC Masters‏‎ (19:08, 23 December 2011)
  231. Bowlers World‏‎ (19:09, 23 December 2011)
  232. Total Differential‏‎ (19:09, 23 December 2011)
  233. Turbo Switch Grip Tips‏‎ (19:10, 23 December 2011)
  234. Extra hole‏‎ (08:37, 5 January 2012)
  235. Mos Conventional Fitting‏‎ (20:10, 8 January 2012)
  236. Axis Tilt Axis Rotation Speed RPM Comparison Video‏‎ (12:07, 27 January 2012)
  237. Tilt and Rotation in ball motion‏‎ (20:41, 30 January 2012)
  238. Double Thumb Layout‏‎ (20:00, 4 February 2012)
  239. Rico‏‎ (20:03, 4 February 2012)
  240. Track Flare‏‎ (20:07, 4 February 2012)
  241. Coverstock‏‎ (20:08, 4 February 2012)
  242. Core‏‎ (20:10, 4 February 2012)
  243. Major Manufacturers‏‎ (20:12, 4 February 2012)
  244. Center of Gravity‏‎ (20:15, 4 February 2012)
  245. Surface Modification‏‎ (20:16, 4 February 2012)
  246. Layout Techniques‏‎ (20:18, 4 February 2012)
  247. Armadillo‏‎ (09:41, 14 February 2012)
  248. Over Rolled Full Roller‏‎ (06:56, 21 March 2012)
  249. Bowling Mentor - Pat Henry‏‎ (17:54, 27 March 2012)
  250. Stable Upper Body‏‎ (07:45, 26 April 2012)

View (previous 250 | next 250) (20 | 50 | 100 | 250 | 500)